sat.trackr.live / text

‹ back to catalog

ONEWEB-0449

NORAD 51642 · 2022-012W

PAYLOAD ACTIVE UNKNOWN

§ Identity

Operator
Country
UK
Launch date
2022-02-10
Launch site
FRGUI
Launch vehicle
Mass (kg)
RCS (m²)

Purposes: comms

External: N2YO · Heavens-Above · Gunter

§ Orbital elements

Epoch: 2026-05-25T02:53:46.929120Z

Period
109.89 min
Inclination
87.8853°
Eccentricity
0.0002228
Mean motion
13.10373337 rev/d
Perigee alt
1,220.0 km
Apogee alt
1,223.4 km
Semi-major
7,599.9 km
B*
-1.7844e-3
RAAN
40.8575°
Arg perigee
83.4365°
Mean anomaly
276.7016°
Rev number
20,628

§ Raw data

ONEWEB-04491 51642U 22012W   26145.12068205 -.00000610  00000+0 -17844-2 0  99912 51642  87.8853  40.8575 0002228  83.4365 276.7016 13.10373337206289

JSON: /api/v1/satellites/51642 · /tle

For live sub-satellite position, see the globe view (requires WebGL).

§ Visibility from observer

Set your observer location to see the next 7 days of passes ≥ 10°. The values pass through the URL so the page stays shareable.

No JS? Fill the form by hand. The geolocation button needs JavaScript.